www.pogodaiklimat.ru

ПОГОДА в Эль Сентро, CA

  • Прогноз погоды в Эль Сентро
  • Монитор погоды в Эль Сентро
  • Климат в Эль Сентро

АРХИВ ПОГОДЫ в Эль Сентро

Время (UTC), дата Ветер
(напр.,м/с)
 
Видим.   Явления Облачность Т
(С)
Тd
(С)
f
(%)
Тe
(С)
Тes
(С)
Комфортность

P
(гПа)

Po
(гПа)
Тmin
(С)
Tmax
(С)
R
(мм)
SD
(см)
23:56 21.03 З  11  16 км    8/0 2550 м
[средняя] 
+19.4  +3.3  34  +19  +19    1018.8  1018.7         
00:56 22.03 З  10  16 км    5/0 2550 м
[средняя] 
+17.8  +4.4  41  +16  +16    1019.4  1019.4         
01:56 22.03 ЮЗ  16 км    2/0 2400 м
[средняя] 
+16.1  +3.9  44  +14  +14    1019.2  1019.1         
02:56 22.03 З  16 км    2/0 2400 м
[средняя] 
+15.6  +2.8  42  +14  +14    1019.8  1019.7         
03:56 22.03 ЮЗ  16 км    2/0 2400 м
[средняя] 
+14.4  +2.2  44  +13  +13    1020.2  1020.1         
04:56 22.03 З  16 км    2/0 2400 м
[средняя] 
+12.8  +1.1  45  +11  +11    1020.5  1020.4  +12.8  +21.7     
05:56 22.03 З  16 км    ясно  +13.3  +2.2  47  +11  +11    1020.3  1020.1         
06:56 22.03 З  16 км    ясно  +13.3  +2.2  47  +11  +11    1020.1  1020.1         
07:56 22.03 ЮЗ  16 км    ясно  +11.7  +2.2  52  +9  +9    1020.1  1020.1         
08:56 22.03 З  16 км    ясно  +10.6  +2.2  56  +8  +8    1019.8  1019.7         
09:56 22.03 З  16 км    ясно  +10.0  +0.6  52  +8  +8    1019.8  1019.7         
10:56 22.03 З  16 км    ясно  +8.9  0.0  54  +6  +6    1020.2  1020.1  +8.9  +13.9     
11:56 22.03 З  16 км    ясно  +8.3  -0.6  53  +6  +6    1020.3  1020.4         
12:56 22.03 З  16 км    2/2 1800 м
[верхняя] 
+10.0  0.0  50  +8  +8    1021.2  1021.1         
13:56 22.03 З  16 км    5/0 7500 м
[верхняя] 
+11.1  +1.1  50  +10  +10    1022.0  1022.1         
14:56 22.03 З  16 км    2/0 7500 м
[верхняя] 
+16.1  +2.2  39  +15  +17    1022.2  1022.1         
15:56 22.03 СЗ  16 км    2/0 7500 м
[верхняя] 
+18.3  +0.6  30  +18  +23    1022.2  1022.1         
16:56 22.03 нст  16 км    2/0 7500 м
[верхняя] 
+19.4  +0.6  28  +20  +26    1022.1  1022.1  +8.3  +19.4     
17:56 22.03 нст  16 км    2/0 7500 м
[верхняя] 
+21.1  -0.6  23  +21  +34  комфорт  1021.7  1021.8         
18:56 22.03 СЗ  16 км    2/0 7500 м
[верхняя] 
+22.2  -1.1  21  +21  +35  комфорт  1021.1  1021.1         
19:56 22.03 нст  16 км    2/0 7500 м
[верхняя] 
+22.8  -1.7  19  +22  +38  комфорт  1020.2  1020.1         
20:56 22.03 В  16 км    5/2 1500 м
[верхняя] 
+22.8  -1.1  20  +22  +29  комфорт  1019.6  1019.4         
21:56 22.03 В  16 км    2/0 2100 м
[средняя верхняя] 
+23.3  -1.7  19  +22  +29  комфорт  1018.9  1018.7         
22:56 22.03   16 км    2/0 2100 м
[средняя верхняя] 
+23.3  -1.1  20  +22  +30  комфорт  1018.6  1018.7  +19.4  +24.4     
23:56 22.03 В  16 км    2/0 2100 м
[средняя верхняя] 
+23.3  -1.7  19  +22  +24  комфорт  1018.5  1018.4         
00:56 23.03   16 км    5/0 7500 м
[верхняя] 
+21.7  0.0  24  +21  +22  комфорт  1018.7  1018.7         
01:56 23.03 ЮВ  16 км    5/0 7500 м
[верхняя] 
+20.6  0.0  25  +21  +21  комфорт  1018.8  1018.7         
02:56 23.03 Ю  16 км    ясно  +17.2  -1.7  28  +17  +17    1019.2  1019.1         
03:56 23.03 З  16 км    ясно  +15.0  -0.6  34  +15  +15    1019.7  1019.7         
04:56 23.03 З  16 км    ясно  +15.0  0.0  36  +14  +14    1020.1  1020.1  +14.4  +24.4     
05:56 23.03 З  16 км    ясно  +16.7  +5.0  46  +16  +16    1019.9  1019.7         
06:56 23.03 З  16 км    ясно  +14.4  +4.4  51  +13  +13    1020.0  1020.1         
08:56 23.03 З  16 км    ясно  +13.9  +3.3  49  +13  +13    1019.3  1019.1         
09:56 23.03 З  16 км    ясно  +12.8  +2.8  51  +11  +11    1019.6  1019.4         
11:56 23.03   16 км    8/0 7500 м
[верхняя] 
+12.2  +2.8  53  +12  +12    1019.8  1019.7         
12:56 23.03 З  16 км    8/0 7500 м
[верхняя] 
+11.1  +1.1  50  +11  +11    1019.9  1019.7         
13:56 23.03 ЮЗ  16 км    2/0 7500 м
[верхняя] 
+13.3  +3.9  53  +13  +13    1020.3  1020.1         
14:56 23.03 З  16 км    2/0 7500 м
[верхняя] 
+17.2  +3.9  41  +17  +19    1020.4  1020.4         
15:56 23.03 Ю  16 км    2/0 7500 м
[верхняя] 
+20.6  +2.2  30  +21  +26  комфорт  1020.2  1020.1         
16:56 23.03 нст  16 км    2/0 7500 м
[верхняя] 
+22.8  +2.8  27  +22  +32  комфорт  1019.9  1019.7  +10.6  +22.8     
17:56 23.03 ЮВ  16 км    2/0 7500 м
[верхняя] 
+23.9  +1.1  22  +23  +34  комфорт  1019.6  1019.4         
18:56 23.03 Ю  16 км    2/0 7500 м
[верхняя] 
+26.1  0.0  18  +24  +32  комфорт  1018.7  1018.7         
19:56 23.03 нст  16 км    2/0 7500 м
[верхняя] 
+26.1  -1.7  16  +24  +38  комфорт  1017.7  1017.7         
20:56 23.03 нст  16 км    5/0 7500 м
[верхняя] 
+27.8  -2.8  13  +25  +37  комфорт  1016.8  1016.7         
21:56 23.03 З  16 км    ясно  +29.4  -7.8  +26  +29  жарко  1016.2  1016.4         
22:56 23.03 ЮЗ  10
{13} 
16 км  слабый дождь  ясно  +27.8  -4.4  12  +25  +25  комфорт  1015.9  1016.0  +22.8  +29.4     
23:56 23.03 ЮЗ  11  16 км  слабый дождь  ясно  +25.0  +2.2  23  +24  +24  комфорт  1016.4  1016.4         
00:56 24.03 З  10
{13} 
16 км  слабый дождь  ясно  +22.8  +4.4  30  +23  +23  комфорт  1017.0  1017.0         

 

Местоположение метеостанции El Centro Naval Air Facility: широта 32.8250 долгота -115.6606 высота над уровнем моря -13 м.

В архиве по умолчанию представлена погода в Эль Сентро за последние 1-2 суток. Обновление информации о фактической погоде в базе происходит ежечасно! Архивные данные за месяц целиком и за предыдущие месяцы Вы можете получить, выбрав интересующий диапазон дат из раскрывающегося списка и нажав кнопку "Ввод!".

Внимание! Архив погоды МЕТАР в базе сайта хранится не более 60 дней. Нет смысла пытаться выбрать более раннюю дату.

Внимание! Время в таблицах - всемирное. Для получения местного времени необходимо прибавить поправку, которая в Эль Сентро равна -8 ч.

Ветер - указаны скорость ветра в м/с и направление, откуда дует ветер: С - северный, СВ - северо-восточный, В - восточный, ЮВ - юго-восточный, Ю - южный, ЮЗ - юго-западный, З - западный, СЗ - северо-западный.
Видимость - горизонтальная дальность видимости в метрах или километрах. При видимости от 1 до 10 км при отсутствии осадков обычно наблюдается дымка, при ухудшении видимости до 1 км и менее - туман. В сухую погоду видимость может ухудшаться дымом, пылью или мглою.
Атмосферные явления - указаны явления, наблюдавшиеся в указанный момент времени.
Облачность - указаны через наклонную черту верхняя и нижняя облачность в баллах и высота нижней границы облаков в метрах. Внимание: облачность, как и прочие метеорологические величины в США измеряются автоматическими метеостанциями. Указанные значения в баллах носят условный характер и показывают процент времени, в течение которого, в среднем, лазерный луч высотомера отражался от облаков обратно.
T - Температура воздуха - температура, измеренная на высоте 2 м над землей.
Td - Температура точки росы - температура, при понижении до которой содержащийся в воздухе водяной пар достигнет насыщения.
f - Относительная влажность воздуха - влажноcть воздуха, измеренная на высоте 2 м над землей.
Te - Эффективная температура - температура, которую ощущает одетый по сезону человек в тени. Характеристика душности погоды. При расчете учитывается влияние влажности воздуха и скорости ветра на теплоощущения человека.
Tes - Эффективная температура на солнце - температура, которую ощущает человек, с поправкой на солнечный нагрев. Характеристика знойности погоды. Зависит от высоты солнца над горизонтом, облачности и скорости ветра. Ночью, в пасмурную погоду, а также при ветре 12 м/с и более поправка равна нулю.
P - Атмосферное давление - приведенное к уровню моря атмосферное давление.
Po - Атмосферное давление - измеренное на уровне метеостанции атмосферное давление.
Tmin - Минимальная температура - минимум температуры воздуха на высоте 2 м над землей.
Tmax - Максимальная температура - максимум температуры воздуха на высоте 2 м над землей.
R - Количество осадков - Количество выпавших осадков за 3 или 6 часов, мм.
SD - Снежный покров - Высота снежного покрова, см.